Total_Precipitation_Accumulation
0.05 0.10 0.13 0.11 0.14 0.18 0.17 0.28 0.38 0.39 0.36 0.40 0.54 0.74 0.96 1.05 1.27 1.54 1.64 1.73 1.85 1.96 2.33 2.77 3.49 4.50 5.05 5.73 5.60 5.15 4.84 4.64 4.59 4.54 4.55 4.51 4.58 4.72 4.82 4.71 4.51 4.47 4.36 4.48
0.07 0.09 0.08 0.08 0.11 0.12 0.15 0.24 0.32 0.41 0.46 0.49 0.68 0.86 1.13 1.26 1.39 1.51 1.52 1.68 1.72 1.90 2.52 3.18 3.75 4.35 4.75 4.90 5.06 5.29 5.24 5.16 4.89 4.84 5.10 5.46 5.69 5.55 5.57 5.49 5.46 5.28 5.11 5.09
0.10 0.08 0.05 0.06 0.09 0.09 0.14 0.21 0.27 0.40 0.52 0.66 0.93 1.27 1.37 1.40 1.58 1.59 1.55 1.63 1.70 1.85 2.23 2.93 3.48 3.91 4.44 4.79 4.87 5.14 5.19 5.35 5.61 5.79 5.86 6.17 6.44 6.26 6.03 5.66 5.50 5.25 4.97 4.92
0.05 0.04 0.05 0.08 0.10 0.09 0.13 0.15 0.22 0.31 0.52 0.80 1.02 1.57 1.68 1.61 1.70 1.73 1.79 1.80 1.83 1.97 2.12 2.50 2.97 3.28 3.70 4.04 4.37 4.77 4.95 5.13 5.69 6.43 6.66 6.67 6.75 6.57 6.21 5.88 5.56 5.23 4.89 4.62
0.05 0.05 0.07 0.09 0.08 0.07 0.09 0.11 0.18 0.27 0.44 0.80 0.97 1.34 1.89 1.84 1.85 1.82 1.86 1.90 1.92 1.94 2.04 2.22 2.36 2.74 3.29 3.54 3.79 4.31 4.72 5.17 5.81 6.34 6.68 6.88 6.76 6.50 6.17 5.71 5.36 5.05 4.67 4.27
0.06 0.06 0.07 0.09 0.09 0.07 0.09 0.14 0.24 0.33 0.56 1.02 0.88 1.11 1.89 2.06 1.96 1.81 1.81 1.90 1.91 1.84 1.89 2.01 2.22 2.46 2.79 3.12 3.42 3.77 4.33 5.00 5.43 5.79 6.13 6.29 6.35 6.23 5.89 5.40 5.07 4.75 4.41 4.06
0.10 0.10 0.08 0.08 0.10 0.11 0.17 0.41 0.81 1.00 1.13 1.13 0.77 1.14 1.93 2.07 2.00 1.96 1.98 2.18 2.03 1.73 1.78 2.06 2.23 2.45 2.69 2.98 3.35 3.71 4.10 4.63 4.93 5.03 5.20 5.49 5.67 5.66 5.51 5.26 4.91 4.49 4.02 3.56
0.21 0.19 0.11 0.09 0.12 0.15 0.19 0.40 0.90 1.17 1.19 1.15 1.07 1.72 2.18 2.09 2.02 2.05 2.04 2.08 2.01 1.89 2.00 2.10 2.16 2.36 2.68 2.88 3.06 3.44 3.67 4.17 4.45 4.33 4.43 4.74 4.96 4.91 4.76 4.51 4.06 3.64 3.29 3.01
0.27 0.26 0.12 0.11 0.12 0.13 0.20 0.30 0.42 0.73 0.87 1.20 1.64 2.19 2.55 2.49 2.38 2.26 2.14 1.94 1.91 1.90 2.07 2.14 2.06 2.16 2.39 2.66 2.85 3.02 3.18 3.55 3.81 3.79 3.83 3.87 3.88 3.87 3.77 3.55 3.20 2.84 2.60 2.38
0.20 0.25 0.15 0.12 0.15 0.18 0.21 0.27 0.43 0.82 1.18 1.52 1.84 2.51 3.12 2.96 2.64 2.36 2.18 1.91 1.88 1.79 1.84 1.94 2.01 2.10 2.02 2.11 2.42 2.66 2.72 2.88 3.03 3.03 3.03 3.02 3.08 3.13 3.03 2.75 2.42 2.26 2.19 2.06
0.18 0.29 0.24 0.22 0.26 0.29 0.31 0.36 0.43 0.67 0.84 1.32 1.87 2.52 2.62 2.70 2.51 2.28 2.07 1.86 1.72 1.64 1.72 1.85 1.96 2.01 1.89 1.81 1.92 2.14 2.36 2.47 2.59 2.69 2.73 2.60 2.54 2.45 2.38 2.23 2.01 1.97 1.95 1.83
0.25 0.37 0.43 0.35 0.28 0.26 0.31 0.36 0.47 0.81 0.88 1.02 1.60 2.42 2.34 2.58 2.61 2.49 2.25 2.03 1.97 1.87 1.88 1.93 2.10 2.05 1.93 1.97 1.96 1.95 2.05 2.18 2.28 2.35 2.45 2.47 2.37 2.15 2.04 1.94 1.84 1.74 1.68 1.64
0.34 0.54 0.79 0.86 0.68 0.44 0.40 0.41 0.46 0.53 0.75 1.06 1.70 2.58 2.48 2.48 2.51 2.44 2.26 2.22 2.20 2.18 2.21 2.18 2.23 2.15 2.05 2.03 1.91 1.76 1.81 1.92 2.02 2.13 2.15 2.11 2.04 1.92 1.81 1.78 1.77 1.65 1.57 1.49
0.38 0.59 0.90 1.28 1.12 0.73 0.60 0.51 0.52 0.62 0.95 1.19 1.59 2.12 2.44 2.37 2.44 2.54 2.47 2.28 2.27 2.37 2.38 2.33 2.32 2.30 2.20 2.09 1.91 1.76 1.71 1.68 1.64 1.76 1.88 1.88 1.85 1.81 1.72 1.62 1.59 1.55 1.52 1.45
0.48 0.67 0.63 0.63 0.62 0.62 0.60 0.56 0.56 0.66 0.78 1.21 1.58 2.02 2.39 2.30 2.45 2.72 2.72 2.55 2.41 2.46 2.48 2.42 2.48 2.42 2.38 2.33 2.17 2.02 1.85 1.70 1.63 1.61 1.58 1.66 1.78 1.79 1.73 1.66 1.62 1.58 1.48 1.37
0.54 0.67 0.67 0.62 0.55 0.58 0.64 0.68 0.63 0.65 0.81 1.19 1.58 2.10 2.21 2.21 2.32 2.46 2.60 2.54 2.43 2.44 2.51 2.56 2.70 2.66 2.60 2.56 2.38 2.21 2.04 1.78 1.63 1.60 1.57 1.60 1.67 1.67 1.62 1.59 1.54 1.49 1.43 1.42
0.56 0.72 0.88 0.79 0.58 0.83 1.19 1.03 0.90 0.88 0.99 1.30 1.72 1.94 1.89 2.01 2.28 2.41 2.49 2.58 2.57 2.67 2.80 2.84 2.78 2.76 2.70 2.62 2.63 2.61 2.34 2.02 1.87 1.75 1.62 1.60 1.57 1.52 1.49 1.39 1.36 1.43 1.44 1.41
0.60 0.78 0.91 0.97 1.06 1.65 1.53 1.03 0.96 1.11 1.27 1.37 1.48 1.54 1.73 1.96 2.17 2.33 2.51 2.71 2.75 2.73 2.68 2.74 2.68 2.70 2.66 2.57 2.54 2.53 2.43 2.19 1.90 1.77 1.63 1.52 1.51 1.47 1.47 1.44 1.41 1.45 1.48 1.40
0.41 0.72 1.02 1.21 1.56 1.67 1.55 1.11 1.11 1.34 1.73 1.54 1.57 1.56 1.69 1.81 2.03 2.43 2.49 2.56 2.77 2.64 2.51 2.58 2.68 2.71 2.70 2.60 2.41 2.32 2.24 2.14 2.01 1.78 1.56 1.43 1.43 1.41 1.40 1.41 1.41 1.44 1.45 1.38
0.46 0.66 1.15 1.45 1.84 2.05 1.82 1.08 0.92 1.39 2.43 1.84 1.71 1.74 1.73 1.85 2.40 2.55 2.26 2.18 2.29 2.38 2.48 2.59 2.70 2.76 2.74 2.69 2.37 2.21 2.09 1.95 1.78 1.56 1.41 1.36 1.37 1.32 1.28 1.34 1.38 1.41 1.42 1.38
0.96 1.03 1.27 1.61 2.06 2.16 1.35 0.86 1.00 2.01 2.51 1.93 1.80 1.77 1.81 2.05 2.23 2.02 1.85 1.94 2.11 2.30 2.43 2.52 2.55 2.58 2.54 2.53 2.30 2.17 1.96 1.80 1.51 1.29 1.25 1.29 1.29 1.24 1.18 1.23 1.28 1.35 1.33 1.34
1.31 1.52 1.63 1.80 2.25 2.38 1.19 0.99 1.43 1.80 1.49 1.43 1.44 1.43 1.48 1.59 1.66 1.71 1.75 1.84 1.93 2.08 2.26 2.35 2.39 2.37 2.27 2.19 2.11 1.99 1.82 1.54 1.35 1.22 1.19 1.25 1.32 1.16 1.06 1.14 1.13 1.17 1.33 1.29
1.31 1.50 1.76 2.02 2.38 1.98 1.30 1.26 1.26 1.28 1.29 1.23 1.28 1.26 1.28 1.36 1.42 1.56 1.75 1.85 1.87 1.85 2.02 2.08 1.99 1.88 1.89 1.85 1.81 1.73 1.56 1.35 1.24 1.26 1.30 1.30 1.28 1.22 1.19 1.20 1.15 1.17 1.27 1.27
1.40 1.21 1.51 1.79 1.88 1.56 1.26 1.16 1.15 1.04 1.03 1.06 1.19 1.19 1.14 1.13 1.09 1.22 1.39 1.57 1.67 1.66 1.66 1.74 1.72 1.64 1.61 1.55 1.47 1.41 1.28 1.24 1.24 1.27 1.35 1.43 1.33 1.19 1.19 1.25 1.13 1.13 1.13 1.15
1.49 1.42 1.66 1.88 1.84 1.61 1.40 1.22 1.11 1.08 1.06 1.09 1.13 1.06 0.97 0.91 0.90 0.95 1.11 1.24 1.34 1.43 1.38 1.41 1.52 1.54 1.41 1.31 1.27 1.21 1.12 1.13 1.26 1.32 1.28 1.32 1.25 1.20 1.22 1.20 1.07 0.99 0.94 0.99
1.37 1.57 1.90 2.10 1.78 1.69 1.55 1.21 1.01 1.04 1.06 1.00 0.95 0.89 0.87 0.82 0.80 0.84 1.01 1.14 1.21 1.24 1.25 1.31 1.37 1.34 1.27 1.19 1.13 1.07 0.99 1.03 1.19 1.27 1.23 1.16 1.12 1.13 1.10 1.15 1.12 1.05 0.98 0.93